Latest Automated Weather Stations
Site ID Site Name Temperature Humidity Wind Speed Wind Direction Precipitation Pressure Solar Radiation Last Updated
0 29°C 68% 3.6 km/hr NNE 0 mm/hr 992 900.8 May 11, 2019, 10:10 am
98 Science Garden, Quezon City 27°C 80% 3.6 km/hr NE 0 mm/hr 1005.8 145.9 May 24, 2019, 6:50 am
5001 San Jose Synoptic Station 26°C 93% 3.6 km/hr NNE 0 mm/hr 1010.3 59.7 May 24, 2019, 6:30 am
5002 Torrijos Marinduque State University 25°C 92% 3.6 km/hr S 0 mm/hr - 147.1 May 24, 2019, 6:45 am
5003 Romblon Synop. Station 26°C 78% 3.6 km/hr WSW 0 mm/hr 991.1 86 May 24, 2019, 6:50 am
5004 Daanbantayan, Cebu 26°C 90% 0 km/hr N 0 mm/hr 1010.2 37.3 May 24, 2019, 6:30 am
5005 State University, Bohol Island 24°C 98% 0 km/hr NNW 0 mm/hr 980 144.2 May 24, 2019, 6:50 am
5006 Borongan Synop,Eastern Samar 25°C 93% 3.6 km/hr W 0 mm/hr 1011.6 228.1 May 24, 2019, 6:50 am
5009 Kidapawan, North Cotabato 19°C 94% 3.6 km/hr SSE 0 mm/hr 929 20.9 May 24, 2019, 6:00 am
5010 Ozamis, Misamis Occidental 23°C 82% 3.6 km/hr W 0 mm/hr 962 14.5 May 24, 2019, 6:00 am
5011 Tolosa -°C 58% 3.6 km/hr NW 0 mm/hr 1011 70.2 May 24, 2019, 7:00 am
5012 Laoag, Ilocos Norte AWS 26°C 85% 3.6 km/hr ESE 0 mm/hr 1009.9 206.1 May 24, 2019, 6:50 am
5013 San Enrique, Iloilo AWS -°C 1% 0 km/hr SSW 0 mm/hr 1007.5 110.9 May 24, 2019, 6:50 am
5015 Guiuan, Eastern Samar AWS 30°C 80% 0 km/hr N 0 mm/hr 1010.2 194.8 May 24, 2019, 6:45 am
5016 Baler. Aurora AWS 26°C 100% 0 km/hr WSW 0 mm/hr 1010.9 174.5 May 24, 2019, 6:50 am
5017 Batac,Ilocos Norte AWS 27°C 83% 3.6 km/hr ENE 0 mm/hr 1009.5 212.3 May 24, 2019, 6:50 am
5018 Sinait, Ilocos Sur AWS 28°C 77% 0 km/hr N 0 mm/hr - 226.2 May 24, 2019, 6:50 am
5019 Bacnotan, La Union AWS 25°C 98% 0 km/hr N 0 mm/hr 1005.7 78.9 May 24, 2019, 6:50 am
5020 La Trinidad, Benguet AWS 18°C 97% 0 km/hr NW 0 mm/hr 871 174.7 May 24, 2019, 6:50 am
5021 Atok, Benguet AWS 14°C 72% 0 km/hr WNW 0 mm/hr 768.3 59.2 May 24, 2019, 6:50 am
5023 San Marcelino, Zambales AWS 26°C 96% 7.2 km/hr NE 0 mm/hr 1004.4 193.9 May 24, 2019, 6:50 am
5024 Lal-lo, Cagayan AWS -°C 1% 7.2 km/hr S 0 mm/hr 1003.9 142.9 May 24, 2019, 6:50 am
5025 Tuguegarao, Cagayan AWS 25°C 92% 10.8 km/hr SSE 0 mm/hr 1008.1 114.3 May 24, 2019, 6:50 am
5026 Echague, Isabela AWS 25°C 100% 0 km/hr SW 0 mm/hr 1003.7 93.7 May 24, 2019, 6:50 am
5027 Bayombong,Nueva Vizcaya AWS 23°C 98% 0 km/hr SSW 0 mm/hr 981.6 67.9 May 24, 2019, 6:50 am
5028 Munoz, Nueva Ecija AWS 27°C 80% 7.2 km/hr NE 0 mm/hr 1002.8 155.2 May 24, 2019, 6:50 am
5029 San Ildefonso, Bulacan AWS 32°C 66% 10.8 km/hr WSW 0 mm/hr 769.8 63.3 May 5, 2019, 4:30 pm
5032 Camiling, Tarlac AWS 26°C 100% 3.6 km/hr SSW 0 mm/hr 1009.3 119.2 May 24, 2019, 6:50 am
5033 Tanay, Rizal AWS 24°C 86% 3.6 km/hr N 0 mm/hr 941.1 226.3 May 24, 2019, 6:50 am
5034 UP Los Banos, Laguna AWS 26°C 92% 0 km/hr NE 0 mm/hr 1010 160.3 May 24, 2019, 6:50 am
5035 Indang, Cavite AWS 25°C 89% 3.6 km/hr E 0 mm/hr 978.3 140.7 May 24, 2019, 6:50 am
5036 Alabat, Quezon AWS -°C 1% 0 km/hr E 0 mm/hr 1010.8 48.3 May 24, 2019, 6:40 am
5037 Pili Camarines Sur AWS 26°C 90% 0 km/hr ESE 0 mm/hr 1007.6 215.1 May 24, 2019, 6:50 am
5038 Guinobatan, Albay AWS 23°C 99% 0 km/hr N 0 mm/hr 983.6 28.5 May 24, 2019, 6:00 am
5039 Virac, Catanduanes AWS 28°C 81% 3.6 km/hr W 0 mm/hr 1007.7 269.3 May 24, 2019, 6:50 am
5040 Tabaco,Albay AWS 26°C 89% 0 km/hr W 0 mm/hr 1011.6 28.8 May 24, 2019, 6:50 am
5041 Sorsogon, Sorsogon AWS -°C 1% 0 km/hr NNE 0 mm/hr 1009.3 59.1 May 24, 2019, 6:50 am
5042 Gamay, Northern Samar AWS 26°C 94% 0 km/hr NE 0 mm/hr 542.5 128.3 May 24, 2019, 6:50 am
5043 Baybay, Leyte AWS -°C 1% 7.2 km/hr W 0 mm/hr 1010.5 110.4 May 24, 2019, 6:50 am
5046 Dumangas, Iloilo AWS 26°C 93% 3.6 km/hr WNW 0 mm/hr 1011.3 189.3 May 24, 2019, 6:50 am
5047 Mambusao, Capiz AWS 25°C 100% 0 km/hr SE 0 mm/hr 1008.2 226.3 May 24, 2019, 6:50 am
5051 Gen. Luna, Siargao AWS 28°C 83% 3.6 km/hr ENE 0 mm/hr 1011 76.8 May 24, 2019, 6:50 am
5052 Mambajao, Camiguin AWS -°C 1% 0 km/hr W 0 mm/hr 1010.6 113.4 May 24, 2019, 6:50 am
5054 Nasipit, Agusan del Norte AWS 26°C 84% 3.6 km/hr SE 0 mm/hr 1006.7 80.7 May 24, 2019, 6:50 am
5055 Tandag, Surigao del Sur AWS 26°C 89% 7.2 km/hr ESE 0 mm/hr 1009.2 235.2 May 24, 2019, 6:50 am
5063 Digos, Davao del Sur AWS 27°C 87% 0 km/hr WNW 0 mm/hr 1008.5 203.2 May 24, 2019, 6:50 am
5068 RTR Philrice, Agusan del Norte AWS -°C 1% 3.6 km/hr NNE 0 mm/hr - 184 May 24, 2019, 6:50 am
5072 Naval, Biliran AWS 28°C 76% 3.6 km/hr ENE 0 mm/hr 1004.48 250 May 24, 2019, 7:00 am
5074 Las Nieves Agusan del Norte AWS 25°C 100% 0 km/hr NE 0 mm/hr 1005.64 0 May 23, 2019, 11:30 pm
5075 Culasi, Antique AWS 28°C 80% 3.6 km/hr ESE 10 mm/hr 1010.19 211 May 24, 2019, 6:30 am
5078 Bayawan, Negros Oriental AWS 27°C 87% 0 km/hr NNE 0 mm/hr 1004.81 219 May 24, 2019, 6:50 am
5079 San Jacinto, Ticao Island, Masbate AWS 27°C 94% 0 km/hr WNW 7 mm/hr 1006.6 214 May 24, 2019, 6:40 am
5080 Kalibo, Aklan AWS 26°C 89% 7.2 km/hr SW 41 mm/hr 1009.54 69 May 24, 2019, 6:40 am
5081 Hinunangan, Southern Leyte AWS 26°C 92% 3.6 km/hr SSE 0 mm/hr 1010.28 121 May 24, 2019, 7:00 am
5082 Talakag, Bukidnon AWS -°C -% 7.2 km/hr S 0 mm/hr 967.21 125 May 24, 2019, 6:50 am
5100 Basco, Batanes AWS 25°C 77% 21.6 km/hr E 0 mm/hr 993.4 55.8 May 24, 2019, 6:40 am
5101 Itbayat, Batanes AWS 26°C 65% 21.6 km/hr E 0 mm/hr 1000.5 356.8 May 24, 2019, 6:40 am
5102 Rizal, Palawan AWS 26°C 78% 3.6 km/hr NE 0 mm/hr 1000.1 86.4 May 24, 2019, 6:50 am
5103 Brooke's Point Palawan AWS 26°C 78% 3.6 km/hr N 0 mm/hr 1109.9 169.2 May 24, 2019, 6:50 am
5104 Sta Ana, Cagayan AWS 27°C 78% 7.2 km/hr E 0 mm/hr 1007.2 262.6 May 24, 2019, 6:50 am
5105 Aparri, Cagayan AWS 26°C 82% 10.8 km/hr SSE 0 mm/hr 1010.4 242 May 24, 2019, 6:50 am
5106 Palanan, Isabela AWS 24°C 92% 3.6 km/hr SW 0 mm/hr 1010.1 292.6 May 24, 2019, 6:50 am
5107 Baler Synoptic Station AWS 26°C 82% 7.2 km/hr NW 0 mm/hr 990.9 157.2 May 24, 2019, 6:50 am
5108 Janiuay Iloilo AWS 24°C 95% 3.6 km/hr WNW 0 mm/hr 1004.5 86.4 May 24, 2019, 6:50 am
5109 Banaue, Ifugao AWS 24°C 52% 0 km/hr NNE 0 mm/hr 853.2 56.2 May 24, 2019, 6:50 am
5110 Dagupan Pangasinan AWS -°C 0% 7.2 km/hr SSE 0 mm/hr 1010.1 196.2 May 24, 2019, 6:50 am
5111 Hacienda Luisita, Tarlac AWS 27°C 80% 0 km/hr SSW 0 mm/hr 1006.6 129.7 May 24, 2019, 6:40 am
5112 Tagaytay AWS 23°C 83% 3.6 km/hr SSE 0 mm/hr 906.2 112 May 24, 2019, 6:50 am
5113 Ambulong Tanauan Batangas AWS 26°C 84% 7.2 km/hr E 0 mm/hr 1009.2 139.2 May 24, 2019, 6:50 am
5114 Tayabas, Quezon AWS 26°C 86% 0 km/hr NNE 0 mm/hr 993.3 99.2 May 24, 2019, 6:50 am
5115 Infanta, Quezon AWS 28°C 78% 3.6 km/hr WNW 0 mm/hr 1010.6 213.4 May 24, 2019, 6:50 am
5116 Taal, Batangas AWS 27°C 87% 0 km/hr NE 0 mm/hr 1002.6 107.6 May 24, 2019, 6:50 am
5117 Lipa, Batangas AWS 24°C 95% 0 km/hr N 0 mm/hr 974.4 135.2 May 24, 2019, 6:50 am
5118 Mabini, Batangas AWS 26°C 87% 0 km/hr ESE 0 mm/hr 1004.9 156.1 May 24, 2019, 6:50 am
5119 Sofronio Espanola, Palawan AWS 25°C 88% 3.6 km/hr NNW 0 mm/hr 1005.4 57.8 May 24, 2019, 6:50 am
5120 Puerto Galera, Mindoro Oriental AWS 27°C 77% 3.6 km/hr NE 0 mm/hr 1010.2 82.4 May 24, 2019, 6:50 am
5121 Sta Cruz, Mindoro Occidental AWS 26°C 77% 3.6 km/hr NE 0 mm/hr 1009.3 201.2 May 24, 2019, 6:50 am
5122 Calapan, Mindoro Oriental AWS 25°C 72% 3.6 km/hr ESE 0 mm/hr 1006.1 70.3 May 24, 2019, 6:50 am
5123 Coron, Palawan AWS 25°C 90% 7.2 km/hr N 0 mm/hr 1018.8 118.4 May 24, 2019, 6:50 am
5124 Puerto Princesa, Palawan AWS 26°C 85% 0 km/hr W 0 mm/hr 1007.8 104.9 May 24, 2019, 6:50 am
5125 Cuyo, Palawan AWS 24°C 92% 0 km/hr SE 0 mm/hr 1010.2 12.1 May 24, 2019, 6:50 am
5126 Sorsogon Synoptic 25°C 90% 3.6 km/hr SSE 0 mm/hr 1008.8 158.4 May 24, 2019, 6:50 am
5128 Legazpi AWS 26°C 88% 3.6 km/hr NW 0 mm/hr 1008.8 200.7 May 24, 2019, 6:50 am
5129 Milagros, Masbate AWS 26°C 89% 0 km/hr E 0 mm/hr 1005.4 223.9 May 24, 2019, 6:50 am
5130 Catarman Northern Samar AWS 25°C 89% 3.6 km/hr SSW 0 mm/hr 1009.9 67.3 May 24, 2019, 6:40 am
5131 Tacloban, Leyte AWS 26°C 90% 3.6 km/hr N 0 mm/hr 1010.6 80.3 May 24, 2019, 6:40 am
5132 Maasin, Southern Leyte AWS 27°C 78% 3.6 km/hr NW 0 mm/hr 1002.6 202.2 May 24, 2019, 6:50 am
5133 Dauis, Bohol AWS 27°C 81% 3.6 km/hr N 0 mm/hr 1007.5 170.5 May 24, 2019, 6:50 am
5134 Talibon, Bohol AWS 28°C 78% 3.6 km/hr SSW 0 mm/hr 1010 249.7 May 24, 2019, 6:50 am
5135 Dalaguete, Cebu AWS 22°C 98% 0 km/hr ENE 0 mm/hr 924.6 107 May 24, 2019, 6:50 am
5136 Iloilo Radar Station AWS 26°C 84% 3.6 km/hr W 0 mm/hr 1010.3 230 May 24, 2019, 6:50 am
5137 Polilio Quezon 27°C 92% 0 km/hr N 0 mm/hr 1010.2 109.8 May 24, 2019, 6:50 am
5138 Mactan, Cebu AWS 27°C 80% 3.6 km/hr WNW 0 mm/hr 1008 69.3 May 24, 2019, 6:50 am
5139 Argao, Cebu AWS 26°C 78% 3.6 km/hr W 0 mm/hr 992.2 202.7 May 24, 2019, 6:50 am
5140 Surigao Synoptic Station AWS 27°C 80% 3.6 km/hr S 0 mm/hr 1006.3 271.5 May 24, 2019, 6:50 am
5141 Butuan, Agusan del Norte AWS 27°C 83% 7.2 km/hr SSE 0 mm/hr 1009.1 245.6 May 24, 2019, 6:50 am
5142 Hinatuan, Surigao del Sur 25°C 87% 0 km/hr E 0 mm/hr 1008.8 69.4 May 24, 2019, 6:50 am
5143 Sindangan Zamboanga del Norte 27°C 81% 3.6 km/hr NE 0 mm/hr 1010 218.1 May 24, 2019, 6:50 am
5144 Malaybalay Bukidnon AWS 22°C 90% 0 km/hr NNE 0 mm/hr 931.6 218.7 May 24, 2019, 6:50 am
5145 Maasim, Sarangani AWS 28°C 71% 10.8 km/hr ENE 0 mm/hr 1010.2 195.4 May 24, 2019, 6:50 am
5146 Marawi, Lanao del Norte AWS 22°C 86% 0 km/hr ESE 0 mm/hr 926.9 205.2 May 24, 2019, 6:50 am
5147 Davao City AWS 26°C 86% 3.6 km/hr N 0 mm/hr 1008.8 225.6 May 24, 2019, 6:50 am
5148 Bago Oshiro, Talomo, Davao City AWS 24°C 94% 0 km/hr N 0 mm/hr 999.4 81.8 May 24, 2019, 6:50 am
5149 Gen. Santos City AWS 27°C 76% 3.6 km/hr NNW 0 mm/hr 995.8 269.9 May 24, 2019, 6:50 am
5150 Kiamba, Sarangani AWS 26°C 77% 3.6 km/hr N 0 mm/hr 1010 165.6 May 24, 2019, 6:50 am
5151 Zamboanga City AWS 27°C 69% 3.6 km/hr NE 0 mm/hr 1009.8 223.2 May 24, 2019, 6:50 am
5152 Narra, Palawan AWS 25°C 83% 3.6 km/hr WNW 0 mm/hr 1010.1 177.1 May 24, 2019, 6:50 am
5154 Jomalig, Quezon AWS 28°C 77% 3.6 km/hr NNE 0 mm/hr 1009.5 75.7 May 24, 2019, 6:50 am